Theta_e
302 303 304 304 304 303 302 302 303 303 302 303 304 306 305 306 308 309 309 308 306 308 311 311 311 310 310 311 309 309 311 310 309 311 312 313 314 315 317 319 318 319 319 319 319 319 322 330 337 338 339 341 338 335 335 334 332 332 335 337 337 339 340 339 336 335 335 336 337 336 334 333 330 327 325 324 328 332 334 336 337 337 336 335 335 334
302 305 304 303 304 304 303 303 303 302 302 303 303 304 304 304 306 306 306 306 305 307 309 309 309 309 309 310 309 308 310 311 309 309 310 312 313 314 316 318 318 318 317 318 318 320 323 330 337 339 339 339 337 333 333 333 333 332 334 336 337 338 338 339 337 335 335 336 336 336 335 334 331 328 327 328 331 334 336 336 337 337 336 336 335 335
304 306 305 303 303 304 304 303 303 302 303 303 303 304 304 304 305 305 306 306 304 305 308 307 306 306 307 309 310 309 309 310 310 310 311 312 313 313 315 317 318 318 318 318 319 318 320 327 334 339 339 337 334 334 334 334 334 333 333 335 337 338 337 338 337 336 335 336 337 336 336 335 333 331 329 331 334 336 337 337 337 338 337 337 337 336
305 307 304 301 302 303 303 303 303 303 303 303 303 303 304 304 304 304 306 306 304 304 306 306 305 305 306 308 309 309 308 309 310 311 311 312 312 312 314 316 317 317 317 319 318 318 320 324 330 336 338 337 334 336 335 334 334 332 331 332 335 337 338 337 336 337 337 337 337 337 337 335 334 334 333 334 335 336 337 337 338 338 338 338 338 336
305 305 302 300 302 303 303 303 303 304 305 304 303 303 303 303 303 304 305 304 304 305 305 306 305 304 307 309 310 310 309 309 309 310 310 311 312 312 313 314 315 317 317 317 317 318 321 323 325 328 333 337 335 332 332 332 333 331 331 331 333 336 338 337 337 338 338 338 338 338 337 335 334 336 335 335 335 336 336 336 337 337 338 338 338 337
303 302 300 302 303 302 302 303 304 304 305 305 304 303 303 303 303 303 303 303 305 306 305 307 305 305 310 311 310 311 311 311 310 310 310 310 312 311 312 313 313 316 317 318 318 318 321 322 319 319 325 335 336 333 331 331 332 333 331 332 334 336 337 337 337 338 338 338 338 339 338 336 336 336 336 335 335 336 336 336 337 337 337 338 338 338
303 302 301 303 303 302 302 302 303 303 304 305 305 303 302 302 303 303 303 303 305 306 305 305 306 307 310 309 308 311 311 311 311 311 311 309 311 311 312 313 313 314 315 318 320 321 322 320 318 318 319 327 333 332 331 331 332 334 333 332 334 336 336 335 337 339 339 338 338 338 339 338 338 338 336 335 335 336 337 337 337 337 337 338 338 338
303 302 302 303 302 302 303 302 302 303 303 305 305 303 302 302 302 303 303 303 304 305 304 304 304 305 306 305 308 311 311 311 311 311 311 309 310 311 311 313 313 314 314 315 317 318 320 320 320 320 319 323 328 329 332 333 332 333 333 333 335 335 335 334 336 338 339 338 338 338 339 339 339 339 338 336 335 336 337 338 338 338 338 338 338 338
302 303 303 303 303 302 302 303 303 302 303 305 305 303 303 303 303 303 302 303 304 305 305 304 303 305 306 306 308 310 310 310 311 311 311 310 310 311 311 312 312 313 314 314 315 315 317 318 320 320 320 323 326 328 331 332 332 334 335 335 336 337 335 334 335 337 339 338 338 338 339 340 339 340 339 338 336 336 337 338 338 338 338 338 338 338
302 303 302 302 303 302 302 303 303 302 302 303 303 303 303 303 303 303 303 303 304 306 305 304 304 304 304 306 308 309 309 309 310 311 311 310 310 310 311 311 312 313 313 314 315 315 315 316 317 320 321 322 324 328 332 334 335 338 339 338 337 337 337 335 335 336 339 339 338 338 338 339 340 340 340 338 338 337 338 338 338 338 338 338 338 338
302 303 302 302 302 302 302 302 301 301 302 302 302 302 303 303 304 304 305 303 304 305 304 302 304 303 304 306 307 307 308 309 310 311 311 311 310 310 312 312 313 313 313 314 314 314 315 315 316 318 319 324 329 333 336 338 339 339 340 339 338 339 338 336 335 336 338 339 339 338 337 339 340 340 340 339 339 338 337 338 338 338 338 338 338 338
304 304 304 303 302 301 302 301 300 300 301 302 303 302 303 305 304 304 305 304 303 305 303 302 303 303 303 306 307 307 309 312 312 312 314 313 310 310 312 312 313 313 313 314 314 314 315 315 316 316 319 328 335 338 337 338 339 340 340 339 339 340 339 338 336 335 337 339 339 339 338 338 340 340 340 340 339 338 337 337 338 338 338 338 337 337
305 305 304 303 303 301 302 302 301 301 301 303 305 304 303 305 305 304 304 304 303 303 303 303 303 303 303 304 306 307 307 310 311 310 311 312 310 310 312 312 313 313 314 314 314 315 315 315 316 316 318 325 332 337 338 338 339 339 340 340 340 339 339 339 337 335 337 339 339 339 339 339 340 341 341 340 339 338 337 336 337 338 338 337 337 336
306 306 304 303 304 303 302 303 302 302 302 302 305 304 303 303 304 304 304 305 304 302 303 303 303 304 304 304 306 306 306 308 308 308 308 309 309 310 311 312 312 313 313 314 314 315 315 315 315 316 316 319 324 330 335 338 339 339 339 340 340 339 339 339 337 336 337 338 339 339 339 339 340 341 341 340 339 339 338 337 337 338 338 337 336 336
306 307 305 304 304 303 302 302 303 304 303 302 303 304 303 303 304 304 304 304 303 303 304 303 304 306 307 308 309 307 305 306 306 307 308 308 309 309 310 311 311 312 313 314 314 314 315 315 315 316 316 317 319 321 326 331 335 337 338 338 338 339 340 339 338 336 337 338 340 340 340 340 341 341 341 341 340 339 339 338 338 338 338 337 335 335
305 306 305 304 303 302 302 302 302 304 303 302 303 303 303 303 305 306 305 304 304 305 306 306 307 309 309 310 310 307 307 307 306 307 307 307 308 308 309 310 311 312 313 313 313 313 315 314 315 316 316 317 318 319 320 324 329 333 333 333 336 337 338 339 338 337 337 338 340 341 340 340 341 342 341 341 340 339 339 338 338 338 338 336 335 335
305 306 305 303 303 302 302 302 302 303 304 303 303 303 303 303 304 305 305 306 306 307 309 308 307 307 306 307 308 306 309 310 309 308 307 307 309 309 310 311 311 313 313 313 313 313 314 315 315 316 317 318 319 320 321 323 325 328 329 330 334 337 339 340 339 337 337 338 341 341 341 341 341 342 342 341 340 339 339 338 338 338 336 335 335 335
305 306 306 303 303 303 301 302 302 302 303 303 303 303 303 304 304 304 305 306 306 306 308 308 306 305 305 308 310 307 306 309 311 311 309 309 309 309 310 311 312 313 313 313 313 314 314 315 316 318 319 319 319 319 321 323 323 326 328 329 332 335 338 340 339 338 337 339 341 341 341 341 341 342 341 341 340 340 339 339 338 337 335 335 335 334
304 306 307 304 304 306 305 303 303 303 303 303 303 302 304 306 304 303 304 305 305 305 307 310 308 306 306 308 310 309 306 308 310 311 312 311 310 310 310 312 313 313 313 314 313 313 314 316 317 318 319 320 322 322 321 322 324 327 330 332 335 336 336 339 340 340 339 340 341 341 341 341 342 342 341 341 340 340 339 339 337 336 335 335 334 334
305 306 308 307 305 308 309 305 304 304 304 303 303 302 304 306 305 304 303 305 307 308 309 311 309 307 309 309 308 309 309 308 309 310 312 312 310 310 311 312 312 313 314 313 314 314 314 315 317 318 320 321 323 324 324 325 328 329 331 335 339 340 340 341 341 339 339 340 342 342 341 342 342 342 341 340 340 340 339 338 337 335 336 336 335 335
306 305 306 307 307 307 308 306 304 304 304 303 303 303 303 304 305 305 304 304 306 309 311 312 310 310 313 312 308 308 309 309 309 310 311 311 310 310 312 312 313 313 314 314 314 314 314 315 318 319 321 322 323 325 326 326 328 331 334 336 339 341 342 342 342 340 340 341 342 342 341 342 342 341 341 340 339 339 339 337 336 335 336 336 336 335
306 306 306 307 308 307 307 307 304 304 304 303 303 302 302 303 305 305 306 305 303 306 310 311 310 311 312 311 309 308 308 309 309 310 311 311 310 311 312 312 314 314 314 315 314 314 316 317 319 321 324 326 327 327 327 330 333 336 336 337 339 341 342 342 342 341 340 341 342 342 341 342 341 340 339 339 339 339 338 336 336 336 336 336 335 335
307 307 306 307 307 306 306 308 306 305 305 304 304 303 301 304 306 305 306 307 304 304 307 308 309 310 309 310 310 310 309 308 307 309 310 310 310 311 312 312 314 314 313 314 314 314 316 317 319 322 325 327 328 329 330 334 336 337 336 338 340 342 343 343 342 341 341 341 342 341 341 341 340 339 338 338 338 338 337 336 336 336 336 335 335 334
308 308 307 306 306 305 306 308 308 306 306 306 306 304 302 303 305 305 308 310 309 308 307 307 309 310 309 312 315 315 313 311 311 310 309 309 310 311 312 312 313 314 314 314 314 315 317 319 321 325 327 330 331 333 334 335 337 337 338 340 341 342 343 343 343 342 341 341 341 341 340 340 339 338 338 338 338 337 337 337 337 336 335 334 334 334
308 308 307 307 308 307 307 309 309 308 307 307 306 305 303 302 304 306 308 311 312 312 311 310 311 310 310 315 318 316 316 316 316 314 310 309 310 311 311 312 313 313 314 314 314 316 319 322 325 327 329 331 333 334 336 337 338 338 339 340 341 342 343 343 343 342 341 341 341 340 340 340 339 338 338 338 337 336 336 337 337 336 335 334 334 334
308 308 307 307 308 308 308 309 309 309 308 307 306 304 303 303 303 306 308 309 310 313 313 314 314 312 311 314 314 313 314 317 317 316 314 311 310 311 312 312 313 313 313 313 315 319 321 323 326 328 330 332 334 335 337 337 338 339 340 340 341 343 343 343 342 341 341 341 341 340 340 339 337 337 337 337 336 336 336 336 336 335 334 333 333 333
308 309 307 307 308 308 308 308 309 309 308 308 307 304 303 303 303 306 310 310 310 313 314 314 313 312 312 313 312 312 313 314 316 320 320 315 311 311 312 312 313 313 312 313 316 320 324 326 328 330 332 333 335 336 337 337 338 339 340 341 342 343 343 342 341 340 340 341 341 341 341 339 337 335 336 336 336 336 336 335 335 335 334 333 333 332
310 309 307 308 308 307 308 308 308 309 308 307 307 305 304 304 304 307 309 310 312 313 312 312 312 313 313 312 312 312 312 312 315 321 323 320 317 313 311 312 312 312 313 316 319 323 326 328 330 332 335 336 337 338 338 338 339 340 340 341 342 343 342 341 340 339 340 341 341 342 341 339 337 335 336 337 336 336 336 335 335 335 334 333 332 332
310 309 308 308 308 308 308 308 308 309 308 307 307 308 307 305 306 308 307 309 313 312 310 311 314 314 313 312 312 311 312 313 315 320 323 324 322 316 312 313 312 312 316 320 324 327 328 330 332 334 336 338 338 339 339 340 340 340 340 341 342 342 341 340 339 338 339 340 342 342 340 339 336 335 336 336 335 337 337 336 335 334 332 332 332 332
310 309 309 309 309 309 309 308 308 308 308 309 308 309 309 309 309 309 308 310 312 312 311 312 313 312 312 312 311 311 312 314 317 320 322 322 322 317 313 314 312 313 317 322 326 329 330 332 333 335 338 339 339 339 340 340 340 340 340 341 341 341 340 339 338 338 339 340 341 341 340 338 336 335 336 336 336 337 337 336 334 332 331 332 332 332
309 309 310 310 310 310 309 309 308 308 309 310 310 309 310 310 311 311 311 312 312 312 312 311 311 312 311 311 312 314 315 317 320 322 320 320 320 317 315 314 314 314 319 324 328 331 334 335 336 338 339 339 339 339 340 340 340 340 341 340 340 339 339 338 338 339 339 340 341 341 339 338 336 333 335 337 337 337 336 336 333 331 331 332 332 331
308 309 311 311 311 312 310 309 308 308 309 311 311 311 311 311 312 312 311 312 312 311 311 312 312 312 311 314 317 318 318 321 324 323 320 320 320 318 317 316 315 316 322 328 332 335 336 337 338 339 339 339 339 339 339 340 340 340 340 340 339 339 338 338 339 339 339 339 341 341 339 339 336 333 335 336 335 335 336 335 332 331 331 332 332 330
309 310 311 312 312 312 311 310 310 309 310 311 311 311 311 311 311 312 312 312 312 312 312 312 312 312 313 316 319 320 322 325 327 325 323 324 323 322 320 319 318 320 325 330 334 336 337 337 338 338 338 339 339 339 339 339 339 340 339 339 339 338 338 339 339 339 340 340 340 340 340 338 335 334 335 333 333 335 335 333 332 332 332 332 331 330
312 312 312 312 312 312 310 310 311 311 313 316 314 311 311 312 312 312 313 312 311 312 313 313 313 314 314 315 316 320 324 327 328 327 326 327 327 326 325 324 324 325 329 333 335 336 337 338 338 338 339 338 338 339 339 340 339 339 339 339 339 339 338 338 339 340 340 340 341 341 340 337 335 334 334 332 334 335 333 333 334 334 332 331 330 330
312 312 312 311 312 313 311 310 312 313 314 316 316 313 311 312 312 312 313 312 312 313 314 314 314 313 313 314 316 318 323 327 328 328 329 330 330 328 328 329 329 330 332 335 337 337 338 339 339 339 339 339 340 340 340 341 340 339 340 339 339 339 338 339 339 340 339 339 340 341 339 335 334 334 333 332 335 335 331 332 335 334 332 330 329 331
312 312 312 312 313 314 313 311 312 313 313 316 319 318 316 317 317 316 317 316 315 316 317 316 315 315 316 316 316 319 323 326 327 328 330 332 332 330 330 331 332 332 331 333 336 336 337 338 338 338 338 339 340 340 340 341 340 340 340 339 339 339 339 338 338 339 340 340 340 341 337 334 334 334 331 332 335 335 332 332 333 333 332 329 328 331
311 311 313 314 314 314 314 314 315 314 314 317 320 320 319 320 319 319 322 322 318 319 322 320 319 320 321 319 320 322 325 328 334 334 331 332 335 333 332 333 334 334 333 333 335 336 336 336 337 337 338 339 339 340 340 340 340 340 339 339 339 339 339 338 339 340 340 340 340 339 335 332 333 332 331 331 333 335 335 333 331 332 332 331 330 332
311 312 313 314 314 314 314 317 319 318 317 317 317 317 317 319 319 318 322 325 321 319 321 320 320 322 322 321 322 324 327 336 345 338 328 330 335 335 334 335 335 336 336 336 337 338 338 338 338 338 339 339 339 340 340 340 340 339 339 339 339 339 339 339 339 339 338 338 338 336 333 332 332 330 331 332 333 334 335 334 331 331 333 333 333 332
311 312 313 313 314 314 314 316 319 318 317 316 315 315 317 320 319 317 321 326 322 317 318 321 320 321 323 321 321 326 334 342 344 333 325 328 334 334 335 336 336 336 338 337 338 339 339 339 340 339 340 340 340 340 340 340 339 339 339 339 338 339 338 337 337 337 338 338 336 335 334 332 330 329 331 333 334 334 335 333 332 333 333 333 332 332
312 313 313 313 314 314 314 315 316 315 315 313 312 315 318 319 318 318 321 325 321 317 318 321 320 321 322 321 322 328 334 335 332 327 325 328 332 333 335 337 337 337 338 338 339 339 339 340 340 339 339 339 340 340 340 339 339 338 338 338 337 337 337 336 336 337 337 337 336 335 335 333 330 331 333 335 335 336 335 333 334 334 333 332 330 329
313 313 313 313 314 313 313 315 315 315 314 313 314 318 319 317 316 319 322 322 320 318 320 320 320 321 322 322 325 328 327 326 325 326 327 330 332 333 335 336 338 338 338 338 339 339 339 340 340 339 339 339 339 339 338 338 338 337 337 337 337 337 336 335 335 336 336 336 335 333 332 332 332 332 332 333 335 336 334 334 334 333 332 330 328 327
315 315 314 314 313 312 312 314 316 315 314 315 318 318 316 316 319 321 320 320 319 319 319 318 320 321 321 323 326 326 325 325 326 327 328 330 331 332 334 337 338 338 339 339 339 339 339 339 339 339 339 339 339 338 338 337 338 338 337 337 336 336 335 335 336 337 336 333 331 331 332 332 332 330 330 332 335 335 334 334 333 332 330 329 326 325
315 316 317 316 313 313 313 316 318 317 315 316 319 319 317 319 322 320 318 319 320 320 319 318 320 322 322 325 326 326 326 327 327 327 328 329 330 331 334 336 338 338 339 339 339 339 339 339 339 339 339 339 339 338 338 338 338 338 338 337 336 336 335 336 336 336 333 331 331 333 334 332 331 329 331 334 335 334 333 333 331 331 329 328 326 325
314 316 317 316 315 316 317 318 319 318 317 318 320 320 320 320 321 320 320 320 320 321 320 320 321 323 324 326 326 327 327 328 327 328 329 329 329 330 331 334 337 339 339 339 339 340 339 339 338 339 339 338 338 338 338 338 338 338 338 338 337 335 334 335 335 335 333 332 333 333 332 331 331 331 333 334 333 332 332 331 330 330 329 328 326 326
315 315 316 316 316 317 317 317 318 317 317 318 319 319 319 320 320 320 321 321 321 321 321 321 322 323 325 327 327 327 328 328 327 328 330 331 330 330 330 332 335 337 339 339 339 339 339 339 339 339 338 339 339 339 338 338 338 339 338 338 337 333 332 333 335 334 333 332 331 331 331 332 333 333 334 334 332 330 330 331 330 329 328 327 326 325
314 314 315 316 315 315 315 316 315 315 316 318 319 319 319 320 321 321 321 322 322 322 321 322 323 323 325 327 327 327 327 328 328 329 329 330 331 331 331 331 332 334 336 338 339 339 339 339 339 339 338 339 339 339 339 338 338 339 338 337 335 332 332 333 332 331 331 332 332 331 332 334 334 334 334 333 331 330 330 331 330 328 326 325 325 325
313 314 315 313 312 315 317 317 315 314 316 318 318 318 319 320 320 321 322 322 322 322 323 323 323 323 325 326 327 327 328 328 328 328 328 329 331 332 332 332 332 333 334 335 337 338 338 339 339 338 338 339 339 339 339 338 338 338 337 335 333 332 331 330 330 329 331 333 332 332 333 335 335 334 333 332 332 331 330 329 328 327 325 324 325 325
314 313 312 311 311 314 317 316 315 315 317 317 317 318 318 319 320 321 321 322 322 323 323 324 323 324 325 327 327 328 328 328 328 328 328 329 331 332 332 332 332 332 333 334 335 336 337 338 337 337 338 338 338 339 339 337 337 337 335 334 333 332 329 328 330 331 332 332 332 332 333 334 334 332 331 330 330 330 328 327 326 325 324 323 324 324
315 313 312 311 311 313 315 315 316 317 317 317 317 317 317 318 319 321 322 323 323 323 324 324 324 324 325 326 327 328 328 328 328 328 328 329 330 331 332 332 333 332 332 333 335 335 335 336 336 336 337 337 338 338 338 337 336 335 334 333 332 330 329 329 330 331 333 333 332 333 334 333 332 330 329 329 328 328 327 327 326 324 324 323 323 323
314 314 313 312 313 314 315 316 317 317 317 317 315 315 317 318 319 320 321 321 322 324 324 325 324 325 325 326 327 327 328 328 328 328 328 329 330 330 331 331 332 333 333 333 334 333 333 334 335 335 335 334 335 337 337 336 335 335 334 333 331 329 329 331 332 332 333 333 332 332 332 332 330 329 328 328 328 328 328 327 325 324 324 324 324 324
314 314 314 314 314 316 316 316 315 316 316 315 313 313 315 317 319 319 320 320 321 322 324 325 325 325 325 325 326 327 327 327 327 327 327 327 327 328 329 329 330 332 333 333 332 332 332 333 334 334 333 332 333 334 335 335 334 334 334 333 330 330 331 333 334 333 333 333 332 332 331 329 328 327 327 327 327 327 327 326 324 324 325 324 324 324
Wind_Speed
3 1 2 3 3 4 4 5 6 4 4 4 3 2 1 1 3 4 5 5 6 3 6 7 8 7 8 8 5 8 10 10 14 15 18 25 27 29 32 33 32 33 34 31 26 29 32 32 36 43 43 40 39 39 38 36 35 33 31 30 29 27 24 22 23 23 24 25 25 24 24 25 24 23 24 25 25 23 22 20 18 17 15 13 12 10
3 2 2 5 6 6 5 5 6 3 3 3 3 1 2 1 3 4 5 7 5 2 5 6 7 7 7 7 5 7 7 10 14 15 17 24 26 27 32 36 36 36 36 34 30 30 33 32 35 41 43 41 41 41 40 39 38 35 32 31 30 28 27 25 24 24 25 25 24 22 24 24 23 22 23 24 24 23 22 20 18 17 15 13 12 11
2 2 5 7 7 5 4 5 6 4 3 3 3 2 1 2 3 5 5 6 5 2 4 7 8 8 7 7 6 6 7 13 21 20 21 26 27 25 29 35 37 38 38 37 34 33 34 33 33 39 44 44 43 42 41 40 39 37 34 33 32 30 28 26 25 25 25 23 21 21 22 22 20 19 21 22 21 20 20 20 18 17 15 14 13 12
1 4 8 8 6 5 2 3 6 4 3 3 3 3 2 2 1 3 4 6 7 3 4 7 9 7 7 7 6 9 14 17 22 24 24 26 27 27 27 32 38 40 40 39 37 36 36 35 34 38 43 45 43 41 41 42 41 38 35 34 34 31 29 27 26 26 24 21 20 20 20 19 18 18 20 21 20 19 19 19 19 18 16 15 14 13
3 6 5 5 4 5 3 1 5 4 1 2 4 4 3 3 4 4 3 6 7 5 4 5 7 7 6 7 7 9 12 14 17 20 23 26 28 28 28 30 35 39 41 42 40 39 40 38 36 35 39 43 44 43 43 43 43 40 37 36 35 32 29 28 27 27 25 23 22 21 21 21 21 22 22 23 23 21 20 19 19 17 16 16 15 15
5 6 3 4 2 5 4 2 3 5 2 2 4 7 7 6 5 5 3 4 5 4 3 2 3 7 4 5 7 5 7 10 12 14 19 26 27 26 28 29 31 36 40 42 42 42 41 40 38 36 37 42 44 44 43 43 43 41 39 38 36 33 29 28 29 28 27 26 24 24 25 26 27 27 27 26 24 22 21 20 18 17 16 16 16 16
4 6 5 4 5 4 4 3 3 5 4 2 4 7 8 7 6 5 3 0 0 4 4 3 2 5 5 6 7 4 6 10 10 10 15 23 25 24 27 30 31 33 36 38 40 41 42 41 41 41 41 43 44 43 42 43 44 42 41 40 37 34 30 29 30 29 28 27 26 25 27 27 27 28 28 25 23 21 19 18 17 16 16 16 17 17
2 3 3 4 5 4 4 3 4 6 6 2 5 6 7 6 6 6 5 3 3 3 5 2 4 3 5 7 6 3 6 9 8 11 14 19 25 25 27 30 33 34 34 35 36 37 40 42 43 45 45 45 45 43 42 44 45 45 44 42 39 35 30 29 31 31 30 29 28 26 27 27 26 26 24 23 22 21 19 18 17 16 16 17 17 18
3 3 5 6 5 4 4 4 6 8 5 5 5 5 5 6 6 5 4 3 3 1 5 6 4 3 6 4 3 4 7 10 10 14 14 16 23 27 27 28 31 34 34 34 34 34 36 40 43 44 44 44 45 45 45 44 45 46 46 43 40 36 32 31 32 32 31 31 29 26 27 28 26 24 23 23 23 21 19 18 18 17 17 18 19 20
3 4 6 6 4 4 5 5 8 9 5 4 3 4 3 2 2 3 3 2 2 2 7 8 5 4 7 2 4 5 9 12 13 13 11 12 20 25 27 28 29 31 33 33 35 35 34 35 39 42 41 41 44 46 46 44 46 47 46 44 41 38 35 32 32 32 32 32 30 28 28 29 27 25 25 25 25 23 20 19 18 18 18 19 20 21
3 3 2 4 5 6 6 5 7 9 7 3 3 2 3 3 2 1 1 2 1 4 10 12 7 5 6 3 7 9 8 10 10 8 8 9 16 22 26 29 29 31 32 32 33 34 34 33 35 39 41 42 43 45 45 45 47 47 45 44 42 40 37 33 32 33 33 33 32 30 28 29 27 25 26 27 28 26 23 21 20 19 19 20 20 21
3 2 2 3 5 6 5 3 4 6 5 3 3 2 0 2 2 3 2 2 2 6 9 11 8 7 8 6 6 8 6 5 6 7 7 8 13 20 25 29 31 32 33 33 34 34 34 34 36 39 42 43 43 44 44 46 47 46 45 44 43 41 38 35 33 34 34 34 34 31 30 29 28 26 27 28 29 28 25 22 21 20 20 20 21 21
3 4 4 3 5 7 6 2 2 1 3 4 3 4 3 1 1 0 3 2 4 8 4 4 5 7 10 8 6 10 9 6 6 8 9 9 12 18 21 25 30 33 34 34 35 36 36 37 37 38 40 42 43 43 44 45 46 46 45 45 44 43 40 37 35 35 35 35 34 33 31 31 30 28 27 28 28 28 26 23 22 22 21 20 21 22
2 4 4 3 5 9 9 5 3 2 3 5 4 5 5 2 2 3 4 3 5 8 4 3 3 4 7 6 10 15 15 15 16 16 17 17 18 22 23 23 26 30 34 36 37 38 38 39 38 38 38 40 43 43 43 45 45 46 46 45 45 43 42 39 36 36 36 35 35 34 33 32 31 29 28 28 28 28 27 25 24 23 22 20 20 21
3 5 3 5 4 8 12 10 7 5 4 5 4 4 4 4 3 4 3 4 5 4 3 4 4 3 3 4 9 14 16 22 27 27 28 29 29 29 30 28 27 27 31 35 38 38 38 38 38 38 38 39 41 42 43 45 46 47 47 46 45 44 43 41 38 37 37 36 36 36 34 33 32 30 28 28 28 28 27 26 24 23 22 20 19 19
4 6 5 6 5 7 10 9 8 8 3 4 4 4 4 4 3 2 2 3 3 2 2 2 3 5 4 5 7 7 10 15 22 27 29 33 35 32 30 32 32 31 30 32 37 38 37 37 37 38 39 40 41 42 44 46 47 48 47 46 45 45 44 43 39 37 37 37 38 37 36 35 34 31 29 28 29 28 27 26 24 22 20 18 17 17
3 4 4 4 4 6 10 8 8 9 5 2 4 4 4 3 2 1 3 3 2 2 2 3 6 6 4 7 10 10 11 9 10 17 21 27 33 30 29 33 35 35 33 32 34 38 39 39 39 39 40 41 42 43 45 46 46 46 45 44 45 45 45 44 40 38 37 38 39 38 37 36 34 32 30 29 29 28 27 26 24 21 18 15 14 14
3 4 5 4 4 7 9 7 6 10 8 4 4 6 3 3 2 2 3 2 2 2 3 4 8 6 3 6 6 8 13 11 9 10 12 19 25 25 28 34 35 36 35 32 33 37 40 40 40 40 41 42 43 44 44 43 42 43 43 44 44 45 45 44 41 39 38 39 40 39 37 36 34 32 30 29 29 27 27 26 22 19 16 13 13 14
3 2 5 4 4 3 2 4 3 5 5 4 4 7 5 3 4 3 3 2 2 4 4 4 9 8 6 6 4 6 12 13 11 10 9 12 15 19 27 33 35 35 34 32 33 36 38 39 40 41 41 41 43 43 43 41 41 43 44 44 45 45 44 43 41 39 39 40 40 38 37 36 34 31 30 29 28 27 27 24 21 17 14 14 14 15
3 2 4 2 1 1 2 2 3 3 3 1 0 3 3 1 2 3 3 2 2 4 4 5 7 6 5 6 6 10 12 12 13 11 10 10 14 21 27 31 34 35 35 35 34 34 37 38 39 40 41 41 42 42 41 41 42 43 44 45 45 44 44 43 40 39 40 40 39 38 36 35 33 31 30 29 28 27 26 23 19 16 14 15 15 15
2 3 3 3 2 1 1 3 7 6 6 4 2 3 3 2 1 1 2 3 2 3 3 4 6 5 4 4 8 13 14 13 13 13 12 12 17 25 29 32 34 35 37 38 36 35 36 37 37 38 39 40 40 40 40 41 43 44 44 44 44 45 45 42 41 40 40 40 39 37 35 34 33 31 29 28 26 25 24 21 18 15 15 15 15 15
3 2 3 1 0 3 5 5 8 10 9 7 6 6 6 5 3 2 4 5 4 3 3 3 5 5 4 5 6 10 12 13 15 14 12 16 24 30 32 34 36 38 39 38 36 36 35 34 35 36 37 38 39 40 42 43 44 45 44 44 44 45 44 42 41 41 40 40 39 36 33 32 31 29 28 26 24 22 22 20 17 16 16 16 15 14
4 1 2 4 4 6 5 3 6 8 8 6 6 7 6 5 4 4 5 5 5 6 5 4 6 5 6 9 7 8 11 14 18 17 14 20 30 32 32 35 36 37 38 37 35 35 34 33 34 36 37 39 40 41 43 44 45 45 44 43 44 44 42 41 42 41 40 40 38 34 32 31 29 27 26 25 23 22 22 20 18 16 16 15 15 14
4 1 3 5 4 5 6 3 5 6 5 4 6 7 7 8 7 5 3 3 4 5 5 5 6 6 9 9 6 7 10 13 18 21 18 22 29 30 31 33 33 34 36 37 35 32 32 33 34 36 38 40 41 42 43 44 43 42 42 43 44 43 42 42 42 41 40 39 36 33 31 30 28 26 25 24 22 22 21 20 18 16 14 14 15 14
5 2 3 3 3 4 4 3 4 6 7 6 6 8 10 12 11 6 4 3 2 4 7 5 4 8 10 5 3 7 9 8 13 20 23 25 27 29 32 35 36 36 36 36 34 31 31 33 35 37 39 41 42 43 43 43 41 41 42 43 43 42 41 42 42 41 40 38 35 32 31 30 27 26 26 25 23 22 21 19 18 16 14 15 15 13
5 2 4 4 4 5 5 3 2 4 6 5 6 11 14 15 15 9 4 4 5 4 4 4 5 11 12 8 10 13 12 10 12 15 19 24 27 30 33 37 38 35 33 34 33 32 33 35 37 38 40 41 42 43 42 42 41 41 42 43 42 41 42 43 42 40 39 37 34 32 33 31 26 25 26 24 23 22 20 19 16 15 16 17 15 12
2 2 6 8 9 9 8 5 2 4 6 7 9 13 14 15 15 9 4 5 6 1 2 8 11 13 15 14 14 14 12 14 15 12 13 19 25 31 35 37 36 34 33 34 34 34 36 37 38 40 41 42 42 42 43 42 42 42 42 42 41 41 42 42 41 39 38 36 35 34 35 31 25 24 24 23 23 21 19 18 17 17 17 17 14 11
0 3 8 11 14 15 12 10 5 6 8 10 11 12 14 15 14 11 9 7 4 3 7 13 10 8 14 16 15 16 16 16 14 12 13 18 23 27 29 30 29 30 32 33 35 36 38 38 39 40 41 42 42 41 41 41 41 42 42 42 41 42 43 42 40 38 36 36 35 35 35 30 24 24 24 23 21 20 20 20 19 19 18 15 12 11
1 4 6 8 14 17 15 15 10 6 7 9 11 11 13 15 16 16 14 9 5 7 12 7 2 6 14 16 16 18 18 15 16 20 23 24 23 22 20 21 23 26 29 32 35 38 39 40 41 41 42 42 41 41 40 39 39 39 39 39 40 41 41 40 38 36 35 35 35 36 35 29 24 25 24 22 21 22 22 20 19 19 17 13 12 11
1 4 4 5 11 14 12 12 9 6 6 8 11 11 11 13 15 14 13 10 8 11 13 10 11 15 17 18 19 22 22 20 22 26 28 26 22 18 19 22 24 27 30 33 37 39 40 41 42 42 43 42 41 41 40 39 39 39 39 39 39 40 39 38 37 36 35 35 35 36 35 29 25 25 24 23 23 22 21 19 19 19 15 13 12 12
2 2 1 3 6 8 4 4 6 5 3 4 8 11 12 11 11 11 11 9 7 11 14 15 15 16 19 18 16 20 23 20 18 20 21 21 19 17 20 24 27 29 32 35 37 39 40 40 41 41 41 42 42 42 41 41 40 40 40 39 40 40 39 38 37 36 35 35 35 36 34 29 25 25 25 24 22 21 20 21 22 19 15 14 14 14
3 2 2 1 2 5 3 3 7 5 1 1 5 10 13 12 10 10 9 7 8 13 14 12 12 13 16 13 9 13 16 12 11 13 15 14 13 17 21 25 28 31 32 34 35 37 39 40 40 41 42 42 43 42 42 42 41 41 40 40 40 39 38 38 37 36 35 35 35 36 34 30 26 25 26 24 22 22 21 20 20 18 17 16 16 16
3 2 3 2 2 4 4 2 7 6 3 2 7 10 13 12 10 9 8 9 13 13 9 8 12 14 13 9 8 12 13 9 9 12 14 11 8 15 21 24 28 30 32 34 36 38 40 42 42 43 44 43 43 43 43 42 42 42 42 41 40 39 38 38 37 36 35 35 36 36 35 30 27 27 26 23 23 23 19 15 16 17 16 15 16 17
3 3 2 1 1 2 3 2 6 5 3 4 7 12 16 16 15 12 10 14 16 12 9 11 14 15 14 10 10 13 13 11 14 17 17 11 8 13 18 21 24 28 30 33 37 39 41 42 42 42 43 42 42 42 42 41 41 41 41 40 40 40 38 37 37 37 35 35 36 37 34 30 27 27 26 24 25 23 18 16 16 15 17 17 16 18
4 4 1 0 1 1 1 4 4 2 4 4 2 8 14 13 13 12 11 13 15 13 13 16 17 17 15 12 13 16 16 17 20 20 15 8 8 13 17 19 23 28 31 32 35 38 39 40 40 40 40 39 39 39 39 39 39 38 38 39 39 39 38 37 37 37 35 35 36 36 33 29 28 28 26 25 25 22 19 19 17 15 17 18 17 20
5 2 1 1 1 1 2 2 2 3 4 5 4 4 5 3 3 5 7 9 10 10 10 12 13 13 13 13 17 19 17 17 15 11 8 4 7 10 15 19 22 28 32 34 37 38 38 39 39 38 39 38 38 38 38 38 38 37 37 38 38 39 38 36 37 37 37 36 36 35 32 29 29 29 27 25 25 23 21 21 20 18 19 18 18 21
5 2 1 1 1 0 1 2 2 2 3 3 4 2 0 1 2 3 3 5 7 7 6 8 9 10 10 12 17 17 12 11 8 7 12 9 3 5 11 17 20 24 28 30 34 36 36 37 37 37 38 38 39 39 39 38 38 37 37 38 38 37 37 36 37 38 37 35 35 33 30 28 29 29 27 26 25 25 24 22 21 20 20 20 21 24
6 3 1 2 1 1 0 1 2 3 1 2 3 4 4 3 3 4 2 4 4 7 7 8 7 10 9 9 16 16 10 8 5 6 17 18 8 2 6 13 16 19 23 26 29 31 33 34 35 36 37 37 38 39 39 39 38 38 38 38 38 37 37 37 37 37 36 35 34 31 27 27 28 28 28 28 28 26 24 21 20 21 20 19 21 24
4 2 1 1 2 1 1 1 1 1 0 2 5 6 6 5 4 5 2 4 3 3 6 6 5 9 8 9 14 11 7 7 3 7 20 22 12 7 2 8 13 15 19 22 26 29 31 33 34 33 34 35 36 37 38 38 38 37 38 39 38 38 38 37 36 35 35 35 33 30 27 27 28 26 26 28 28 28 25 20 18 21 21 20 18 20
0 1 2 1 2 1 1 1 2 1 1 2 7 8 4 4 5 6 3 5 5 9 14 11 8 10 12 14 14 6 5 4 5 12 23 20 10 8 5 3 9 12 16 20 23 26 28 30 32 32 33 35 36 36 36 37 36 36 37 38 37 37 36 35 34 34 33 32 30 29 29 29 28 27 27 27 28 29 25 18 16 19 22 20 16 17
1 1 1 0 1 1 1 2 2 1 2 4 7 7 0 6 5 4 2 5 9 16 20 18 15 17 18 16 11 4 4 7 10 14 18 15 9 9 7 1 5 10 14 17 20 22 23 25 28 30 32 33 35 36 35 35 35 36 36 36 36 36 34 32 31 31 30 30 29 29 30 30 28 27 25 25 27 28 23 18 18 21 20 17 17 17
0 1 1 1 1 0 1 2 2 2 3 4 10 10 2 4 2 2 5 8 12 15 19 21 20 20 20 15 7 3 4 8 12 14 15 13 10 9 7 3 4 8 11 15 18 19 20 22 24 25 28 30 32 34 34 34 35 35 36 36 35 33 31 30 29 29 29 28 27 27 28 29 27 24 22 24 26 23 19 19 21 19 15 14 15 17
1 2 2 1 1 0 1 1 2 1 3 8 10 7 0 1 0 4 9 13 14 14 17 20 20 18 18 13 6 8 9 12 16 17 16 14 11 9 7 2 4 8 11 14 17 19 21 22 22 24 26 29 31 32 33 34 35 35 35 34 32 30 30 29 29 29 26 23 24 26 26 25 24 22 21 24 24 19 16 19 20 17 14 13 13 17
1 2 1 1 1 1 1 2 1 3 5 12 8 1 3 7 7 7 7 9 13 14 14 16 19 17 12 6 7 14 16 18 18 16 15 14 13 11 7 2 5 10 12 14 16 19 22 24 26 27 29 30 32 33 33 35 35 35 34 33 31 29 28 28 28 28 25 23 25 28 26 24 23 23 23 24 21 15 15 19 20 19 16 12 12 16
3 3 3 2 1 1 2 4 5 6 10 14 10 6 8 12 11 8 7 9 11 11 11 15 18 14 6 1 7 13 15 16 16 16 14 13 12 11 8 4 3 9 12 14 16 17 20 23 27 28 30 31 33 34 36 36 35 35 34 32 29 26 26 27 27 28 27 26 26 27 26 24 23 24 26 24 17 12 15 20 21 18 14 11 12 17
5 6 4 2 2 4 5 6 7 10 12 13 13 11 9 9 10 10 9 10 10 9 9 12 13 10 4 1 6 12 12 12 13 14 14 14 12 9 7 5 1 5 10 14 17 18 19 21 25 28 29 30 32 35 35 34 33 33 31 29 26 24 26 28 28 27 27 28 28 27 26 24 23 24 24 19 14 15 19 20 19 15 13 14 15 17
5 8 6 2 3 5 3 3 6 9 10 11 16 15 12 11 11 9 9 10 9 7 7 8 8 6 2 2 7 11 11 11 13 13 13 14 13 10 6 4 2 3 8 12 16 19 20 21 25 28 29 30 33 33 32 31 32 30 28 27 26 24 24 25 25 25 27 29 31 30 27 24 24 24 21 16 16 20 21 18 15 14 15 17 18 18
7 9 7 4 4 3 4 6 12 12 7 11 19 19 17 17 15 11 9 8 6 5 4 5 6 4 0 3 7 10 11 10 11 11 10 10 10 8 6 3 1 2 6 9 14 18 19 20 24 27 29 30 33 34 33 32 31 29 28 26 23 20 21 22 23 25 27 30 34 33 28 25 24 22 20 17 17 19 18 16 15 14 14 15 19 20
9 6 5 4 4 3 4 7 11 8 4 13 22 21 19 19 17 14 12 9 6 4 4 4 3 3 0 3 4 6 10 12 10 9 9 8 7 7 5 3 3 3 5 8 12 16 18 20 23 27 29 32 34 34 33 31 29 28 27 23 19 19 22 24 25 26 26 29 33 31 26 25 24 20 18 19 19 19 20 19 16 12 11 12 16 17
9 3 4 4 3 3 4 8 11 5 2 11 21 21 20 21 21 19 18 15 12 9 7 7 7 6 5 5 5 5 9 13 12 10 8 6 6 7 5 4 5 6 7 8 12 15 18 20 23 26 28 30 32 32 31 29 27 26 24 20 18 21 25 26 27 27 25 25 27 25 22 23 22 17 16 18 19 22 23 20 16 13 11 11 13 14
12 8 8 5 3 5 9 16 18 10 4 11 20 22 22 24 25 25 24 22 18 13 11 11 12 12 11 10 9 9 10 13 14 12 10 8 7 6 5 4 3 5 7 8 10 14 17 20 23 25 26 26 28 29 28 27 25 24 22 19 18 22 26 27 28 27 25 25 26 24 21 20 19 16 17 18 19 21 22 20 17 16 14 13 13 14
Wind_Direction
88 95 72 157 176 178 189 161 152 149 110 102 93 82 51 31 283 286 283 313 17 352 263 256 268 270 272 279 292 282 271 249 232 229 233 232 223 215 217 222 224 229 236 239 239 244 249 246 238 232 230 230 231 232 233 233 231 230 227 224 220 214 207 205 202 197 197 199 199 203 207 209 209 206 203 201 202 203 206 210 211 211 214 218 223 222
77 119 207 190 186 182 180 155 140 123 82 87 97 67 338 265 260 274 278 298 353 355 272 292 302 288 274 277 283 269 258 252 241 228 229 236 233 222 215 219 223 228 235 237 235 240 246 244 236 233 231 230 232 233 232 232 232 231 228 226 223 215 209 208 208 206 206 205 204 209 211 209 206 205 205 204 204 206 207 211 216 216 217 221 226 227
43 224 226 205 186 153 148 140 135 137 114 108 107 107 264 248 270 284 283 305 344 340 287 314 308 288 280 274 269 259 241 248 250 242 236 237 237 229 218 217 221 225 231 233 232 235 242 242 236 233 233 232 233 233 233 233 233 231 230 228 224 218 213 212 212 214 213 208 209 215 216 211 208 211 213 210 209 210 212 215 219 222 223 225 230 233
21 245 223 202 177 140 146 137 130 132 119 139 133 130 226 219 192 275 294 318 327 292 260 298 301 285 277 273 261 251 249 255 260 258 253 247 242 238 230 223 221 223 228 231 230 230 234 237 235 232 232 232 233 232 233 233 233 231 230 230 227 220 216 216 216 217 215 209 211 218 218 214 214 220 219 215 214 214 215 217 220 225 227 228 232 235
229 243 205 152 149 155 178 173 138 148 200 220 184 164 195 187 186 229 283 325 327 307 254 269 288 280 265 265 261 253 254 260 263 262 260 254 248 244 238 231 227 226 227 230 230 228 228 230 233 235 235 233 231 232 232 233 233 232 230 230 229 224 218 219 221 218 213 209 211 214 210 208 213 218 217 216 215 213 215 216 219 224 229 231 233 235
252 243 178 114 158 155 155 209 179 169 186 278 225 194 189 176 192 234 287 350 350 313 308 41 275 272 285 272 261 254 253 254 250 249 251 250 248 241 235 231 230 230 230 229 228 227 225 226 230 234 236 234 231 232 232 233 235 235 234 233 231 226 220 221 223 219 214 211 213 213 207 205 209 214 216 216 216 215 218 220 220 225 231 235 237 237
248 227 198 204 221 174 162 222 224 169 141 311 244 197 184 173 183 218 230 27 239 254 284 55 188 267 316 290 262 251 253 255 252 248 245 245 244 237 232 232 230 230 230 230 228 227 225 226 227 229 232 232 233 234 232 231 234 234 235 235 232 227 221 222 224 221 217 215 216 217 214 213 214 217 219 220 220 221 224 228 229 231 234 238 241 241
203 209 199 208 212 187 182 221 221 162 131 248 237 164 157 171 187 207 199 196 222 265 292 273 184 243 290 267 246 225 255 268 264 256 250 241 239 235 232 233 233 232 231 230 229 228 227 228 229 229 230 230 231 234 232 229 231 233 234 235 233 229 223 223 225 223 221 219 218 219 220 222 224 226 227 226 226 225 225 230 234 237 240 243 244 243
168 170 191 192 195 201 205 205 194 166 151 239 223 150 157 176 180 193 184 214 248 320 293 261 173 215 268 243 198 206 247 262 252 246 245 238 237 235 232 232 234 236 235 233 232 230 229 229 231 232 232 230 230 233 233 230 229 231 231 232 232 229 224 223 225 224 224 223 221 221 223 226 229 232 234 233 233 231 230 232 236 240 244 247 247 243
188 200 200 179 170 201 210 203 179 167 187 231 179 111 101 118 131 173 167 199 257 232 255 248 165 204 262 210 177 218 232 242 243 245 247 245 244 240 235 233 233 236 237 236 235 232 230 229 231 233 232 231 231 232 232 230 229 228 228 229 230 229 225 223 225 226 225 224 223 223 226 229 230 232 233 234 235 235 234 236 239 242 245 249 249 244
249 281 239 177 183 195 193 199 185 180 190 160 124 96 24 25 53 73 136 138 227 247 247 242 187 188 257 208 196 223 224 227 235 248 257 252 248 244 239 236 235 236 236 235 236 234 229 227 229 231 230 229 230 230 228 227 227 227 227 229 230 229 225 222 224 226 226 225 224 224 228 231 231 232 233 233 234 234 234 236 240 244 247 251 251 246
257 274 264 218 197 171 144 191 206 192 190 148 136 160 48 322 19 28 344 127 203 248 244 237 201 189 240 227 209 237 237 218 218 231 242 244 246 244 239 236 235 236 237 236 236 234 228 223 224 228 229 228 226 225 225 226 226 227 228 229 228 228 226 223 224 226 226 226 225 226 229 232 233 235 236 235 235 235 236 237 240 245 249 253 252 248
250 222 225 233 209 174 145 173 224 191 177 161 144 130 134 259 58 96 251 176 222 247 249 232 188 198 243 244 246 267 268 251 241 241 239 241 255 257 250 241 235 233 235 236 235 235 230 223 220 222 225 226 225 224 225 225 226 227 228 228 227 228 228 224 223 226 227 226 226 227 229 232 233 236 238 238 238 238 239 241 243 247 253 257 256 251
286 275 221 200 220 186 164 165 193 201 184 170 156 148 158 171 150 204 228 214 237 251 265 253 203 228 268 249 225 239 247 245 248 257 259 256 259 266 267 258 246 235 231 233 233 233 232 227 222 220 221 224 227 228 228 227 227 227 228 228 228 228 228 225 223 225 227 228 228 227 229 232 233 235 238 238 239 240 241 243 246 251 258 264 263 257
254 291 215 184 203 182 184 193 178 148 160 184 158 143 170 171 176 201 208 227 248 272 270 234 212 211 238 232 212 218 232 235 238 245 255 259 259 262 267 267 262 248 235 230 230 230 230 228 226 223 221 221 224 227 229 230 229 229 229 229 229 228 228 225 223 225 227 228 228 227 229 232 233 236 238 239 240 241 241 244 248 254 261 267 267 261
229 270 234 214 214 179 192 198 158 130 154 201 144 133 195 187 158 179 220 240 247 335 324 220 231 229 224 273 266 251 252 239 231 233 239 250 255 256 259 262 262 258 248 235 228 227 227 227 226 224 222 220 220 222 225 228 228 228 228 230 230 229 228 226 222 223 227 228 228 227 228 231 233 235 237 238 239 239 241 244 248 256 262 265 267 263
192 268 264 231 233 208 205 191 161 164 175 167 153 177 200 157 119 227 267 300 43 14 294 231 252 276 300 290 271 261 269 262 240 233 228 237 246 249 251 254 256 256 253 245 234 229 229 229 227 225 223 220 219 220 222 224 226 227 227 228 228 227 226 224 222 223 226 227 227 226 227 230 232 233 235 237 237 237 240 243 249 255 256 258 264 264
176 269 277 200 214 235 213 188 187 191 168 135 182 186 133 114 162 202 243 306 31 309 285 234 243 261 270 274 271 248 251 256 250 243 237 235 238 241 245 248 252 253 252 249 242 236 232 230 228 226 224 222 221 222 223 225 226 227 227 228 227 226 225 223 220 221 224 226 226 226 227 229 230 232 234 236 237 237 239 242 248 251 248 253 261 261
163 264 285 207 204 257 185 156 225 229 186 164 188 173 146 171 203 185 195 215 208 238 267 255 246 240 222 241 285 262 247 251 250 242 241 240 234 236 242 246 250 251 250 247 242 237 231 227 227 225 223 221 220 222 224 225 226 225 226 227 226 226 225 221 217 219 223 226 225 225 226 229 230 231 233 234 235 236 237 242 246 246 245 253 259 261
150 200 286 295 234 3 47 150 196 231 225 226 259 179 163 168 194 176 185 193 181 210 241 261 256 249 225 209 224 243 245 248 252 246 237 235 232 233 237 242 246 247 248 246 241 237 232 228 226 225 223 221 220 221 222 223 223 223 223 223 222 221 220 217 216 219 223 224 224 224 226 228 229 230 232 233 234 235 236 240 242 243 247 253 258 261
154 196 242 323 13 111 215 207 183 181 195 195 207 213 188 170 171 136 186 207 196 194 206 240 257 260 258 219 213 231 238 235 240 245 245 242 239 239 238 240 243 245 246 246 243 238 233 229 225 223 222 222 220 219 219 220 222 220 220 220 219 217 216 214 215 218 222 223 222 222 225 227 227 228 230 230 231 232 234 237 239 242 247 252 257 259
183 198 216 261 335 202 216 208 191 188 187 189 198 201 195 190 168 143 202 210 209 217 207 234 266 263 256 251 234 235 240 236 232 232 240 247 245 243 242 240 241 243 242 242 242 238 231 225 223 221 219 217 216 215 216 217 216 215 216 217 216 215 213 213 215 218 222 223 221 221 224 225 225 226 228 226 225 228 231 233 237 242 244 247 254 256
175 133 230 237 238 240 243 210 199 202 189 192 213 208 198 192 179 189 205 198 202 226 243 271 280 281 268 258 251 251 251 248 244 237 230 239 243 243 244 243 242 243 244 244 241 235 229 226 224 221 217 214 213 213 213 212 212 213 215 215 213 213 212 212 215 218 221 220 219 219 221 222 223 226 225 222 223 225 227 231 238 240 239 244 252 257
170 139 232 251 265 263 260 217 203 213 193 207 230 217 205 202 199 203 202 181 203 220 223 246 268 281 276 263 240 246 256 258 262 260 246 238 240 243 244 246 248 248 247 245 240 232 227 224 221 216 212 210 209 209 209 209 209 210 211 211 211 211 210 212 215 217 219 219 217 217 217 218 221 223 222 220 221 222 224 232 237 234 235 243 250 257
180 183 204 252 282 259 246 209 204 209 200 214 223 209 212 208 197 206 218 203 242 233 205 212 264 264 264 276 280 275 280 278 272 269 257 243 237 238 240 244 248 247 243 238 233 226 219 216 215 212 210 208 207 207 207 207 206 206 207 209 210 209 209 211 214 216 218 217 214 214 215 215 219 221 221 218 217 219 224 230 231 229 234 242 248 257
186 193 176 211 245 244 233 209 200 194 191 207 206 199 204 201 195 202 207 202 230 238 198 187 241 254 265 300 305 293 298 298 288 282 270 254 241 235 236 240 241 237 232 226 220 216 212 212 211 210 208 206 206 206 205 204 204 204 206 207 208 207 208 210 213 214 215 214 213 213 212 213 218 219 217 214 214 217 221 225 228 232 238 242 246 252
171 215 203 217 234 243 247 237 170 142 178 198 194 192 195 196 198 193 174 205 213 194 277 238 237 259 280 290 289 290 299 301 299 297 286 270 254 239 234 237 236 230 223 216 210 208 207 206 207 207 205 204 204 205 204 203 203 202 203 205 205 206 208 209 211 212 213 213 212 211 211 213 215 213 210 211 211 215 221 226 230 236 239 239 240 241
336 244 219 227 239 246 252 248 213 169 201 203 184 184 189 190 194 194 202 208 154 113 252 244 230 256 276 277 281 290 297 300 298 291 285 282 269 250 237 233 228 221 214 205 201 201 201 201 203 203 202 201 201 201 201 201 201 201 202 203 203 205 207 209 209 209 210 211 211 210 210 212 211 209 210 210 210 217 224 223 225 233 236 230 227 229
237 260 222 222 249 254 251 248 236 207 221 208 180 180 184 185 191 200 210 207 161 201 238 252 277 264 268 276 281 285 290 291 287 285 286 285 276 258 238 224 216 209 201 195 195 197 198 198 200 199 198 198 197 197 198 198 200 201 201 200 200 202 206 207 208 208 208 209 211 210 208 210 209 207 209 209 210 220 221 215 223 235 232 219 219 224
167 265 234 214 255 267 256 241 225 202 217 202 181 181 182 188 195 200 213 218 221 242 259 282 290 277 271 273 276 280 284 282 280 285 286 280 269 249 225 213 208 201 196 194 195 196 197 198 197 197 195 194 194 195 195 196 198 199 199 197 198 201 205 207 207 207 206 208 211 208 206 209 209 207 209 209 212 218 217 219 233 235 221 212 219 221
182 243 243 202 263 295 290 191 166 178 208 189 185 188 185 189 192 200 217 222 231 254 261 266 274 275 271 269 272 280 282 282 284 289 285 274 259 236 215 206 203 200 197 195 194 193 194 194 194 193 192 192 194 194 194 195 196 198 197 197 198 201 204 206 206 206 205 207 209 208 205 207 207 205 207 208 212 216 218 229 238 226 209 214 218 215
206 256 306 287 311 322 330 109 134 150 113 324 233 207 189 187 191 203 212 202 214 238 250 261 265 261 264 274 285 283 283 288 293 292 290 279 249 221 211 204 201 200 196 192 190 188 189 190 190 191 191 192 193 193 193 194 194 195 196 196 198 200 202 203 204 204 205 206 208 207 206 207 207 205 206 208 212 215 220 232 231 213 206 216 215 210
203 250 306 331 343 309 311 62 119 125 98 279 245 209 187 189 196 201 209 210 218 227 234 247 250 251 262 278 288 288 292 297 292 290 296 295 253 220 216 208 200 197 192 189 188 187 188 190 192 193 192 192 193 194 194 194 194 195 197 197 198 199 200 201 203 204 204 206 208 206 205 207 208 205 205 207 211 214 218 220 211 204 209 217 214 211
234 260 307 355 318 293 299 116 125 134 162 232 226 194 186 191 192 192 205 217 221 221 224 240 253 264 272 276 279 283 286 285 286 292 298 295 258 229 221 212 201 192 188 188 188 189 190 191 191 192 192 193 194 195 195 195 196 197 196 196 196 198 199 200 201 203 203 205 206 204 205 208 208 204 203 207 210 210 210 206 202 206 212 214 214 210
260 276 300 223 220 290 42 109 123 174 237 272 255 179 185 192 190 195 211 222 224 223 231 245 258 269 279 285 276 266 269 282 291 296 301 288 244 231 223 213 199 188 184 186 187 188 188 188 187 189 191 192 193 193 193 195 196 195 194 194 194 196 198 198 200 202 203 206 205 203 207 210 206 203 205 209 208 204 206 208 206 206 206 209 217 213
245 263 301 288 247 4 43 118 170 249 273 315 19 110 156 158 168 201 226 237 232 220 231 253 267 279 285 280 270 266 277 296 302 311 326 295 243 235 225 215 202 192 190 190 190 191 191 191 193 193 192 191 191 192 193 194 196 195 194 195 195 195 197 199 200 202 203 203 202 203 209 208 204 203 206 208 207 206 208 205 202 205 204 203 212 213
231 227 247 293 275 56 350 233 250 319 331 339 6 24 185 145 146 165 210 248 227 192 217 267 283 292 285 279 288 296 310 322 326 7 17 7 312 242 231 222 211 201 197 194 193 195 195 196 197 195 192 190 190 192 193 193 195 195 193 194 195 196 198 199 199 201 202 202 202 206 209 204 200 202 203 203 205 208 211 207 201 206 208 207 212 211
218 232 274 298 288 95 59 302 345 21 11 256 267 273 281 270 198 148 149 270 226 177 209 251 280 298 301 311 313 315 342 1 335 352 5 6 10 357 238 227 220 208 200 195 193 194 194 194 194 193 191 190 190 192 193 193 195 194 193 194 194 195 196 197 198 201 203 203 205 207 205 199 200 203 203 203 203 204 206 206 202 206 209 210 215 213
211 242 23 338 305 352 46 5 357 127 140 253 246 266 292 269 200 126 66 299 255 221 266 282 309 314 319 325 315 315 12 20 298 313 346 354 5 18 346 221 221 212 200 196 195 195 194 193 191 190 189 188 188 191 193 193 194 194 193 194 194 195 197 199 201 202 203 203 204 205 203 199 201 204 204 207 210 206 201 203 212 219 215 206 207 215
207 344 32 354 296 322 14 324 250 212 42 256 258 279 281 185 143 83 25 278 287 320 324 334 341 328 327 327 322 338 53 9 294 318 338 345 358 7 11 188 208 211 201 197 196 196 195 193 191 189 188 189 190 191 193 193 194 194 194 194 195 197 198 200 201 202 203 204 202 202 201 201 203 207 210 216 218 210 204 208 217 215 206 203 217 230
16 349 357 202 254 300 319 287 281 289 228 247 290 315 202 143 97 71 207 257 308 323 329 335 335 330 328 326 330 6 19 335 327 336 346 356 4 359 1 95 190 199 200 199 196 195 194 192 192 190 189 190 191 192 193 194 194 195 195 194 195 197 199 202 204 202 202 202 202 203 203 202 205 208 213 219 216 207 205 207 204 201 204 221 240 233
349 340 309 194 205 288 195 235 296 298 230 276 337 350 7 140 104 240 260 298 311 313 323 330 329 324 316 310 324 11 358 359 8 10 12 14 9 5 2 332 201 184 190 194 193 192 188 185 187 187 187 189 192 194 194 194 194 194 194 194 196 199 201 202 201 199 199 201 205 207 205 204 207 211 217 220 211 201 198 196 194 200 219 243 244 219
309 322 325 254 210 108 67 320 331 201 259 311 341 359 5 168 138 295 307 314 310 312 322 323 320 315 302 296 342 25 26 34 32 25 24 20 13 20 21 341 201 183 186 185 187 190 188 186 188 190 190 191 193 195 195 194 193 193 194 196 198 200 200 199 199 201 202 200 200 202 203 206 212 215 217 214 203 193 195 200 202 212 227 241 236 211
338 341 318 250 243 24 2 318 211 188 288 314 323 300 267 298 315 319 307 301 306 312 307 298 301 303 293 295 21 31 30 32 28 24 30 27 18 22 30 42 180 184 186 187 190 194 193 192 194 196 197 197 196 197 198 197 195 195 196 198 200 201 199 197 199 201 201 199 200 201 205 214 218 211 203 196 189 190 204 208 208 210 217 230 231 211
327 317 286 262 274 275 250 258 272 294 307 313 320 326 316 315 324 322 287 272 291 298 278 272 283 289 282 335 38 38 37 34 28 24 28 28 24 29 38 43 179 187 189 192 196 198 200 200 196 194 194 195 196 199 200 199 198 197 197 199 200 198 193 193 196 198 198 201 202 201 206 214 213 201 191 185 184 198 210 207 203 205 215 229 225 211
295 313 317 300 309 308 275 260 285 307 311 320 336 351 349 337 337 330 307 293 297 291 269 264 273 278 276 16 51 51 47 42 37 30 21 17 18 27 41 48 93 187 191 193 193 196 202 203 199 196 194 194 196 198 198 200 201 199 197 195 193 190 190 194 198 198 197 201 205 205 207 207 199 190 186 186 195 207 207 204 205 215 233 235 221 210
316 342 351 339 334 334 290 260 302 305 306 338 354 356 358 357 352 344 330 320 315 307 289 275 275 280 285 56 62 62 55 45 43 40 25 12 9 11 22 39 59 182 194 194 192 193 198 202 202 201 198 195 196 199 202 202 202 202 200 195 190 188 190 193 194 193 196 203 208 206 202 197 191 186 183 189 202 203 198 198 209 229 241 233 218 211
333 348 355 340 327 314 249 280 312 306 308 7 9 358 355 1 3 4 359 343 325 317 313 301 291 283 242 77 64 66 68 55 43 42 35 16 1 356 355 352 347 215 204 203 201 200 200 203 205 204 202 198 196 198 202 202 203 205 202 194 188 190 191 191 191 194 201 207 205 200 195 190 187 180 176 184 198 203 205 210 222 237 242 227 214 212
322 333 352 323 305 296 263 302 326 319 334 13 10 5 7 13 16 21 23 18 10 1 359 356 331 298 288 82 69 72 77 71 55 43 38 18 355 351 344 307 288 269 234 216 212 209 206 206 207 207 205 203 198 198 200 201 202 205 201 194 191 192 190 190 193 198 206 206 197 191 188 185 181 176 179 187 195 203 208 211 218 230 229 211 207 209
334 342 347 331 335 344 327 343 357 3 9 7 6 9 18 26 29 31 30 25 21 23 30 34 37 43 53 57 54 62 73 74 64 47 36 19 355 351 343 301 272 269 257 230 214 210 205 204 207 206 203 199 196 195 196 198 199 202 201 200 198 192 190 194 196 197 202 198 187 179 180 181 178 179 187 194 198 202 204 204 211 219 213 202 203 207
352 359 351 348 360 341 344 3 14 18 10 11 15 21 30 38 40 38 37 32 25 27 44 50 46 48 49 47 47 50 54 59 60 54 46 39 27 11 358 334 288 269 264 247 224 213 208 207 209 207 203 199 195 192 194 196 198 200 202 204 203 196 194 195 194 192 190 186 180 177 176 177 179 185 196 206 209 207 204 206 212 214 211 209 212 215